Weather History for Greenville, TX

Change the Weather History Date:

Monday, April 29, 2013

  Actual Average Record
Temperature  
Mean Temperature 70 °F -  
Max Temperature 84 °F 76 °F 87 °F (2012)
Min Temperature 57 °F 60 °F 46 °F (2008)
Cooling Degree Days 6    
Growing Degree Days 20 (Base 50)    
Moisture  
Dew Point 57 °F    
Average Humidity 67    
Maximum Humidity 94    
Minimum Humidity 30    
Precipitation  
Precipitation 0.00 in - - ()
Sea Level Pressure  
Sea Level Pressure 29.88 in    
Wind  
Wind Speed 5 mph (SSE)    
Max Wind Speed 15 mph    
Max Gust Speed 21 mph    
Visibility 8 miles    
Events      
Averages and records for this station are not official NWS values.
T = Trace of Precipitation, MM = Missing Value Source: NWS Daily Summary

Daily Weather History Graph

Daily Weather History Graph

Search for Another Location

Airport:

Trip Planner

Search our weather history database for the weather conditions in past years. The results will help you decide how hot, cold, wet, or windy it might be!

Date:

Astronomy

Apr. 29, 2013 Rise Set
Actual Time 6:38 AM CDT 8:05 PM CDT
Civil Twilight 6:12 AM CDT 8:31 PM CDT
Nautical Twilight 5:40 AM CDT 9:02 PM CDT
Astronomical Twilight 5:08 AM CDT 9:35 PM CDT
Moon No Moon Rise 10:05 AM CDT
Length of Visible Light 14h 19m
Length of Day
13h 26m
Waning Gibbous, 80% of the Moon is Illuminated
Apr 29
Waning Gibbous
May 2
Last Quarter
May 9
New
May 17
First Quarter
May 24
Full

Hourly Weather History & Observations

Time (CDT) Temp. Heat Index Dew Point Humidity Pressure Visibility Wind Dir Wind Speed Gust Speed Precip Events Conditions
12:15 AM 62.6 °F - 59.0 °F 88% 29.90 in 10.0 mi Calm Calm - N/A   Clear
12:35 AM 62.6 °F - 59.0 °F 88% 29.90 in 10.0 mi SE 4.6 mph - N/A   Clear
1:15 AM 62.6 °F - 59.0 °F 88% 29.90 in 10.0 mi ESE 4.6 mph - N/A   Clear
1:35 AM 64.4 °F - 60.8 °F 88% 29.90 in 10.0 mi ESE 3.5 mph - N/A   Clear
1:55 AM 62.6 °F - 59.0 °F 88% 29.90 in 10.0 mi SE 5.8 mph - N/A   Clear
2:15 AM 62.6 °F - 59.0 °F 88% 29.89 in 10.0 mi SSE 3.5 mph - N/A   Clear
2:35 AM 62.6 °F - 59.0 °F 88% 29.89 in 10.0 mi South 5.8 mph - N/A   Clear
2:55 AM 60.8 °F - 57.2 °F 88% 29.89 in 10.0 mi SSE 5.8 mph - N/A   Clear
3:15 AM 62.6 °F - 59.0 °F 88% 29.89 in 10.0 mi SSE 4.6 mph - N/A   Clear
3:35 AM 60.8 °F - 57.2 °F 88% 29.89 in 10.0 mi SE 4.6 mph - N/A   Clear
3:55 AM 60.8 °F - 59.0 °F 94% 29.89 in 10.0 mi SSE 4.6 mph - N/A   Clear
4:15 AM 60.8 °F - 57.2 °F 88% 29.89 in 10.0 mi Calm Calm - N/A   Clear
4:35 AM 59.0 °F - 55.4 °F 88% 29.89 in 10.0 mi SSE 3.5 mph - N/A   Clear
4:55 AM 59.0 °F - 57.2 °F 94% 29.89 in 7.0 mi Calm Calm - N/A   Clear
5:15 AM 57.2 °F - 55.4 °F 94% 29.89 in 4.0 mi Calm Calm - N/A   Clear
5:35 AM 59.0 °F - 55.4 °F 88% 29.89 in 7.0 mi Calm Calm - N/A   Clear
5:55 AM 59.0 °F - 55.4 °F 88% 29.89 in 5.0 mi Calm Calm - N/A   Clear
6:15 AM 57.2 °F - 53.6 °F 88% 29.89 in 3.0 mi Calm Calm - N/A   Clear
6:35 AM 59.0 °F - 55.4 °F 88% 29.90 in 5.0 mi South 3.5 mph - N/A   Clear
6:55 AM 57.2 °F - 55.4 °F 94% 29.91 in 3.0 mi Calm Calm - N/A   Clear
7:15 AM 59.0 °F - 55.4 °F 88% 29.91 in 5.0 mi Calm Calm - N/A   Clear
7:35 AM 60.8 °F - 59.0 °F 94% 29.92 in 7.0 mi Calm Calm - N/A   Clear
7:55 AM 62.6 °F - 60.8 °F 94% 29.92 in 10.0 mi South 4.6 mph - N/A   Clear
8:15 AM 64.4 °F - 60.8 °F 88% 29.92 in 10.0 mi South 4.6 mph - N/A   Clear
8:35 AM 66.2 °F - 62.6 °F 88% 29.93 in 10.0 mi South 6.9 mph - N/A   Clear
8:55 AM 69.8 °F - 62.6 °F 78% 29.93 in 10.0 mi South 6.9 mph - N/A   Clear
9:15 AM 69.8 °F - 62.6 °F 78% 29.93 in 7.0 mi SSW 4.6 mph - N/A   Clear
9:35 AM 71.6 °F - 62.6 °F 73% 29.93 in 7.0 mi SSW 6.9 mph - N/A   Clear
9:55 AM 73.4 °F - 62.6 °F 69% 29.93 in 7.0 mi South 5.8 mph - N/A   Clear
10:15 AM 73.4 °F - 62.6 °F 69% 29.93 in 7.0 mi South 5.8 mph - N/A   Clear
10:35 AM 75.2 °F - 62.6 °F 65% 29.93 in 2.5 mi South 9.2 mph - N/A   Haze
10:55 AM 77.0 °F - 60.8 °F 57% 29.93 in 2.5 mi South 10.4 mph - N/A   Haze
11:15 AM 78.8 °F - 59.0 °F 51% 29.93 in 4.0 mi SSW 9.2 mph 18.4 mph N/A   Haze
11:35 AM 80.6 °F 80.5 °F 55.4 °F 42% 29.93 in 4.0 mi South 12.7 mph 18.4 mph N/A   Haze
11:55 AM 80.6 °F 80.5 °F 55.4 °F 42% 29.93 in 3.0 mi SSW 12.7 mph 20.7 mph N/A   Haze
12:15 PM 80.6 °F 80.8 °F 57.2 °F 45% 29.92 in 1.5 mi South 10.4 mph 16.1 mph N/A   Haze
12:35 PM 82.4 °F 81.7 °F 55.4 °F 39% 29.92 in 1.0 mi SSE 12.7 mph 17.3 mph N/A   Haze
12:55 PM 82.4 °F 81.7 °F 55.4 °F 39% 29.92 in 0.8 mi South 13.8 mph 20.7 mph N/A   Haze
1:15 PM 82.4 °F 82.0 °F 57.2 °F 42% 29.91 in 0.8 mi SSE 15.0 mph 19.6 mph N/A   Haze
1:35 PM 82.4 °F 82.0 °F 57.2 °F 42% 29.90 in 1.5 mi South 11.5 mph 17.3 mph N/A   Haze
1:55 PM 82.4 °F 81.7 °F 55.4 °F 39% 29.90 in 2.0 mi SSE 11.5 mph 20.7 mph N/A   Haze
2:15 PM 82.4 °F 82.5 °F 59.0 °F 45% 29.89 in 1.2 mi SSE 13.8 mph 19.6 mph N/A   Haze
2:35 PM 82.4 °F 81.7 °F 55.4 °F 39% 29.89 in 1.2 mi South 13.8 mph 18.4 mph N/A   Haze
2:55 PM 82.4 °F 81.7 °F 55.4 °F 39% 29.88 in 1.0 mi SSE 15.0 mph 18.4 mph N/A   Haze
3:15 PM 84.2 °F 82.8 °F 53.6 °F 35% 29.87 in 1.5 mi SE 12.7 mph 19.6 mph N/A   Haze
3:35 PM 84.2 °F 83.0 °F 55.4 °F 37% 29.86 in 10.0 mi South 13.8 mph 18.4 mph N/A   Clear
3:55 PM 84.2 °F - 51.8 °F 33% 29.86 in 10.0 mi South 11.5 mph 16.1 mph N/A   Clear
4:15 PM 84.2 °F - 51.8 °F 33% 29.85 in 10.0 mi South 10.4 mph - N/A   Clear
4:35 PM 84.2 °F - 50.0 °F 30% 29.84 in 10.0 mi SSE 10.4 mph - N/A   Clear
4:55 PM 84.2 °F - 50.0 °F 30% 29.83 in 10.0 mi South 13.8 mph - N/A   Clear
5:15 PM 82.4 °F - 51.8 °F 35% 29.83 in 10.0 mi South 11.5 mph 17.3 mph N/A   Clear
5:35 PM 82.4 °F 81.7 °F 55.4 °F 39% 29.82 in 10.0 mi SSE 10.4 mph 16.1 mph N/A   Clear
5:55 PM 82.4 °F 82.5 °F 59.0 °F 45% 29.82 in 10.0 mi SE 10.4 mph - N/A   Clear
6:15 PM 80.6 °F 80.8 °F 57.2 °F 45% 29.82 in 10.0 mi SSE 10.4 mph - N/A   Clear
6:35 PM 80.6 °F 80.8 °F 57.2 °F 45% 29.82 in 10.0 mi SSE 8.1 mph - N/A   Clear
6:55 PM 80.6 °F 80.5 °F 55.4 °F 42% 29.82 in 10.0 mi SSE 10.4 mph - N/A   Clear
7:15 PM 78.8 °F - 55.4 °F 44% 29.82 in 10.0 mi SSE 9.2 mph - N/A   Clear
7:35 PM 77.0 °F - 57.2 °F 50% 29.82 in 10.0 mi SSE 5.8 mph - N/A   Clear
7:55 PM 73.4 °F - 59.0 °F 61% 29.82 in 10.0 mi SSE 4.6 mph - N/A   Clear
8:15 PM 71.6 °F - 59.0 °F 64% 29.82 in 10.0 mi SSE 3.5 mph - N/A   Clear
8:35 PM 69.8 °F - 59.0 °F 68% 29.83 in 10.0 mi SE 3.5 mph - N/A   Clear
8:55 PM 69.8 °F - 59.0 °F 68% 29.83 in 10.0 mi ESE 4.6 mph - N/A   Clear
9:15 PM 64.4 °F - 59.0 °F 83% 29.84 in 10.0 mi SSE 4.6 mph - N/A   Clear
9:35 PM 66.2 °F - 59.0 °F 78% 29.84 in 10.0 mi South 4.6 mph - N/A   Clear
9:55 PM 68.0 °F - 59.0 °F 73% 29.85 in 10.0 mi SSE 4.6 mph - N/A   Clear
10:35 PM 66.2 °F - 59.0 °F 78% 29.85 in 10.0 mi SE 4.6 mph - N/A   Clear
10:55 PM 64.4 °F - 59.0 °F 83% 29.85 in 10.0 mi SE 4.6 mph - N/A   Clear
11:15 PM 64.4 °F - 57.2 °F 77% 29.85 in 10.0 mi SE 4.6 mph - N/A   Clear
11:35 PM 64.4 °F - 57.2 °F 77% 29.85 in 10.0 mi SE 4.6 mph - N/A   Clear
11:55 PM 62.6 °F - 55.4 °F 77% 29.85 in 10.0 mi SE 4.6 mph - N/A   Clear